This demonstration page uses our WeatherBlox Daily Observations layout. Learn more.

Left ArrowRight Arrow

34.74481, -87.66753

Hourly Observations for March 18, 2021

Temp ( °F °C ) Dew Point ( °F °C ) Humidity (%) Winds ( mph kmh ) Pressure ( in mb ) Visibility ( mi km ) Precip ( " mm )
12:53 am 00:53 Cloudy 65 18.3 60 15.6 84 84 S 8 13 29.62 1003 10 16 0.01 0.25
1:36 am 01:36 Cloudy with Light Rain 66 18.9 60 15.6 81 81 WSW 3 6 29.62 1003 7 11 0.04 1.02
1:53 am 01:53 Cloudy with Light Rain 67 19.4 60 15.6 79 79 WSW 17 28 29.62 1003 7 11 0.06 1.52
2:08 am 02:08 Mostly Cloudy 67 19.4 59 15 76 76 WSW 16 26 29.63 1003 10 16 0.01 0.25
2:34 am 02:34 Partly Cloudy 66 18.9 58 14.4 75 75 SW 13 20 29.63 1003 10 16 0.03 0.76
2:53 am 02:53 Clear 65 18.3 58 14.4 78 78 SW 9 15 29.62 1003 10 16 0.05 1.27
3:41 am 03:41 Mostly Cloudy 65 18.3 58 14.4 78 78 SW 9 15 29.61 1003 10 16 0.00 0.00
3:53 am 03:53 Cloudy 65 18.3 58 14.4 78 78 SW 10 17 29.60 1002 10 16 0.00 0.00
4:11 am 04:11 Partly Cloudy 65 18.3 57 13.9 76 76 WSW 15 24 29.60 1002 10 16 0.00 0.00
4:53 am 04:53 Clear 63 17.2 55 12.8 76 76 WSW 13 20 29.61 1003 10 16 0.00 0.00
5:45 am 05:45 Cloudy 63 17.2 55 12.8 76 76 WSW 8 13 29.62 1003 10 16 0.00 0.00
5:53 am 05:53 Cloudy 63 17.2 55 12.8 76 76 WSW 8 13 29.62 1003 10 16 0.00 0.00
6:41 am 06:41 Cloudy 61 16.1 48 8.9 63 63 W 18 30 29.66 1004 10 16 0.00 0.00
6:53 am 06:53 Mostly Cloudy 59 15 47 8.3 64 64 W 21 33 29.65 1004 10 16 0.00 0.00
7:53 am 07:53 Sunny 58 14.4 45 7.2 62 62 WSW 16 26 29.67 1005 10 16 0.00 0.00
8:53 am 08:53 Mostly Cloudy 58 14.4 45 7.2 62 62 WSW 20 31 29.70 1006 10 16 0.00 0.00
9:53 am 09:53 Cloudy 57 13.9 44 6.7 62 62 W 17 28 29.72 1006 10 16 0.00 0.00
10:50 am 10:50 Cloudy 55 13 43 6 63 63 WSW 20 31 29.75 1008 10 16 0.00 0.00
10:53 am 10:53 Cloudy 55 12.8 43 6.1 64 64 W 20 31 29.75 1007 10 16 0.00 0.00
11:53 am 11:53 Cloudy 54 12.2 42 5.6 64 64 W 20 31 29.76 1008 10 16 0.00 0.00
12:51 pm 12:51 Cloudy 55 13 43 6 63 63 W 18 30 29.78 1009 10 16 0.00 0.00
12:53 pm 12:53 Cloudy 54 12.2 41 5 62 62 W 20 31 29.77 1008 10 16 0.00 0.00
1:23 pm 13:23 Cloudy 53 11.7 41 5 64 64 W 21 33 29.78 1009 10 16 0.00 0.00
1:36 pm 13:36 Cloudy 54 12.2 41 5 62 62 WNW 18 30 29.78 1009 10 16 0.00 0.00
1:53 pm 13:53 Cloudy 55 12.8 42 5.6 62 62 WNW 17 28 29.77 1008 10 16 0.00 0.00
2:53 pm 14:53 Cloudy 54 12.2 40 4.4 59 59 W 17 28 29.78 1008 10 16 0.00 0.00
3:31 pm 15:31 Cloudy with Light Rain 51 10.6 41 5 69 69 W 14 22 29.81 1009 9 14 0.00 0.00
3:53 pm 15:53 Cloudy 50 10 40 4.4 68 68 W 20 31 29.80 1009 10 16 0.01 0.25
4:53 pm 16:53 Cloudy 48 8.9 39 3.9 71 71 WNW 20 31 29.85 1011 9 14 0.01 0.25
5:15 pm 17:15 Cloudy 48 8.9 38 3.3 68 68 WNW 18 30 29.88 1012 8 13 0.01 0.25
5:25 pm 17:25 Cloudy 47 8.3 39 3.9 74 74 W 18 30 29.88 1012 7 11 0.01 0.25
5:53 pm 17:53 Cloudy 47 8.3 39 3.9 74 74 W 15 24 29.88 1012 10 16 0.02 0.51
6:22 pm 18:22 Cloudy 48 8.9 37 2.8 66 66 W 12 19 29.90 1013 10 16 0.00 0.00
6:51 pm 18:51 Cloudy 46 8 37 3 71 71 W 15 24 29.92 1013 10 16 0.01 0.25
6:53 pm 18:53 Cloudy 47 8.3 38 3.3 71 71 W 14 22 29.90 1013 10 16 0.01 0.25
7:02 pm 19:02 Cloudy with Haze 46 7.8 38 3.3 73 73 W 15 24 29.92 1013 6 10 0.00 0.00
7:53 pm 19:53 Cloudy 47 8.3 37 2.8 69 69 W 14 22 29.92 1013 10 16 0.00 0.00
8:53 pm 20:53 Cloudy 47 8.3 37 2.8 69 69 W 15 24 29.94 1014 10 16 0.00 0.00
9:53 pm 21:53 Cloudy 47 8.3 38 3.3 71 71 W 13 20 29.96 1015 10 16 0.00 0.00
10:53 pm 22:53 Cloudy 47 8.3 39 3.9 74 74 WNW 12 19 29.97 1015 10 16 0.00 0.00
11:28 pm 23:28 Cloudy 47 8.3 39 3.9 74 74 W 9 15 29.99 1016 10 16 0.00 0.00
11:53 pm 23:53 Cloudy 47 8.3 39 3.9 74 74 W 10 17 29.98 1015 10 16 0.00 0.00

Powered by AerisWeather